owner,sensor,date,latitude,longitude,vertical_datum,direction_of_sea_water_velocity,sea_water_speed,upward_sea_water_velocity,qcFlag 
COMPS,ioos:station:USF.COMPS:C10:1,2010-12-01T00:00:00Z,27.1690,-82.9260,4.0,0.0,2.0,-99999.0,'1111122,1114422,1199999999' 
COMPS,ioos:station:USF.COMPS:C10:1,2010-12-01T01:00:00Z,27.1690,-82.9260,4.0,270.0,3.0,-99999.0,'1111122,1111122,1199999999' 
COMPS,ioos:station:USF.COMPS:C10:1,2010-12-01T02:00:00Z,27.1690,-82.9260,4.0,270.0,5.0,-99999.0,'1111122,1111122,1199999999' 
COMPS,ioos:station:USF.COMPS:C10:1,2010-12-01T03:00:00Z,27.1690,-82.9260,4.0,270.0,10.0,-99999.0,'1111122,1111122,1199999999' 
COMPS,ioos:station:USF.COMPS:C10:1,2010-12-01T04:00:00Z,27.1690,-82.9260,4.0,286.69924423399,10.440306508911,-99999.0,'1111122,1111122,1199999999' 
COMPS,ioos:station:USF.COMPS:C10:1,2010-12-01T05:00:00Z,27.1690,-82.9260,4.0,315.0,8.4852813742386,-99999.0,'1111122,1111122,1199999999' 
COMPS,ioos:station:USF.COMPS:C10:1,2010-12-01T06:00:00Z,27.1690,-82.9260,4.0,323.13010235416,5.0,-99999.0,'1111122,1111122,1199999999' 
COMPS,ioos:station:USF.COMPS:C10:1,2010-12-01T07:00:00Z,27.1690,-82.9260,4.0,0.0,1.0,-99999.0,'1113322,1114422,1199999999' 
COMPS,ioos:station:USF.COMPS:C10:1,2010-12-01T08:00:00Z,27.1690,-82.9260,4.0,138.01278750418,13.453624047074,-99999.0,'1111122,1111122,1199999999' 
COMPS,ioos:station:USF.COMPS:C10:1,2010-12-01T09:00:00Z,27.1690,-82.9260,4.0,172.40535663141,15.132745950422,-99999.0,'1111122,1111122,1199999999' 
COMPS,ioos:station:USF.COMPS:C10:1,2010-12-01T10:00:00Z,27.1690,-82.9260,4.0,135.0,8.4852813742386,-99999.0,'1111122,1111122,1199999999' 
COMPS,ioos:station:USF.COMPS:C10:1,2010-12-01T11:00:00Z,27.1690,-82.9260,4.0,147.26477372789,16.643316977093,-99999.0,'1111122,1111122,1199999999' 
COMPS,ioos:station:USF.COMPS:C10:1,2010-12-01T13:00:00Z,27.1690,-82.9260,4.0,168.69006752598,10.198039027186,-99999.0,'1111122,1111122,1199999999' 
COMPS,ioos:station:USF.COMPS:C10:1,2010-12-01T15:00:00Z,27.1690,-82.9260,4.0,145.49147701233,19.416487838948,-99999.0,'1111122,1111122,1199999999' 
COMPS,ioos:station:USF.COMPS:C10:1,2010-12-01T16:00:00Z,27.1690,-82.9260,4.0,153.43494882292,20.124611797498,-99999.0,'1111122,1111122,1199999999' 
COMPS,ioos:station:USF.COMPS:C10:1,2010-12-01T17:00:00Z,27.1690,-82.9260,4.0,156.80140948635,22.847319317592,-99999.0,'1111122,1111122,1199999999' 
COMPS,ioos:station:USF.COMPS:C10:1,2010-12-01T18:00:00Z,27.1690,-82.9260,4.0,145.17551084304,28.017851452244,-99999.0,'1111122,1111122,1199999999' 
COMPS,ioos:station:USF.COMPS:C10:1,2010-12-01T19:00:00Z,27.1690,-82.9260,4.0,126.15818543981,32.202484376209,-99999.0,'1111122,1111122,1199999999' 
COMPS,ioos:station:USF.COMPS:C10:1,2010-12-01T20:00:00Z,27.1690,-82.9260,4.0,138.99091309843,30.479501308256,-99999.0,'1111122,1111122,1199999999' 
COMPS,ioos:station:USF.COMPS:C10:1,2010-12-01T21:00:00Z,27.1690,-82.9260,4.0,132.13759477389,28.319604517013,-99999.0,'1111122,1111122,1199999999' 
COMPS,ioos:station:USF.COMPS:C10:1,2010-12-01T22:00:00Z,27.1690,-82.9260,4.0,128.41805534482,37.013511046643,-99999.0,'1111122,1111122,1199999999' 
COMPS,ioos:station:USF.COMPS:C10:1,2010-12-01T23:00:00Z,27.1690,-82.9260,4.0,141.34019174591,32.015621187164,-99999.0,'1111122,1111122,1199999999' 
COMPS,ioos:station:USF.COMPS:C10:1,2010-12-02T00:00:00Z,27.1690,-82.9260,4.0,135.0,33.941125496954,-99999.0,'1111122,1111122,1199999999' 
COMPS,ioos:station:USF.COMPS:C10:1,2010-12-02T01:00:00Z,27.1690,-82.9260,4.0,151.55707137564,27.294688127912,-99999.0,'1111122,1111122,1199999999' 
COMPS,ioos:station:USF.COMPS:C10:1,2010-12-02T02:00:00Z,27.1690,-82.9260,4.0,156.03751102542,29.546573405388,-99999.0,'1111122,1111122,1199999999' 
COMPS,ioos:station:USF.COMPS:C10:1,2010-12-02T03:00:00Z,27.1690,-82.9260,4.0,158.96248897458,27.856776554368,-99999.0,'1111122,1111122,1199999999' 
COMPS,ioos:station:USF.COMPS:C10:1,2010-12-02T04:00:00Z,27.1690,-82.9260,4.0,153.43494882292,24.596747752498,-99999.0,'1111122,1111122,1199999999' 
COMPS,ioos:station:USF.COMPS:C10:1,2010-12-02T05:00:00Z,27.1690,-82.9260,4.0,163.61045966597,17.720045146669,-99999.0,'1111122,1111122,1199999999' 
COMPS,ioos:station:USF.COMPS:C10:1,2010-12-02T06:00:00Z,27.1690,-82.9260,4.0,153.43494882292,17.888543819998,-99999.0,'1111122,1111122,1199999999' 
COMPS,ioos:station:USF.COMPS:C10:1,2010-12-02T07:00:00Z,27.1690,-82.9260,4.0,132.70938995736,17.691806012954,-99999.0,'1111122,1111122,1199999999' 
COMPS,ioos:station:USF.COMPS:C10:1,2010-12-02T08:00:00Z,27.1690,-82.9260,4.0,128.65980825409,19.209372712299,-99999.0,'1111122,1111122,1199999999' 
COMPS,ioos:station:USF.COMPS:C10:1,2010-12-02T09:00:00Z,27.1690,-82.9260,4.0,135.0,21.213203435596,-99999.0,'1111122,1111122,1199999999' 
COMPS,ioos:station:USF.COMPS:C10:1,2010-12-02T10:00:00Z,27.1690,-82.9260,4.0,121.42956561484,21.095023109729,-99999.0,'1111122,1111122,1199999999' 
COMPS,ioos:station:USF.COMPS:C10:1,2010-12-02T11:00:00Z,27.1690,-82.9260,4.0,136.63657704162,24.75883680628,-99999.0,'1111122,1111122,1199999999' 
COMPS,ioos:station:USF.COMPS:C10:1,2010-12-02T12:00:00Z,27.1690,-82.9260,4.0,135.0,22.62741699797,-99999.0,'1111122,1111122,1199999999' 
COMPS,ioos:station:USF.COMPS:C10:1,2010-12-02T13:00:00Z,27.1690,-82.9260,4.0,151.18920625703,22.825424421027,-99999.0,'1111122,1111122,1199999999' 
COMPS,ioos:station:USF.COMPS:C10:1,2010-12-02T14:00:00Z,27.1690,-82.9260,4.0,147.38075692881,29.681644159312,-99999.0,'1111122,1111122,1199999999' 
COMPS,ioos:station:USF.COMPS:C10:1,2010-12-02T15:00:00Z,27.1690,-82.9260,4.0,152.35402463626,23.706539182259,-99999.0,'1111122,1111122,1199999999' 
COMPS,ioos:station:USF.COMPS:C10:1,2010-12-02T17:00:00Z,27.1690,-82.9260,4.0,143.13010235416,20.0,-99999.0,'1111122,1111122,1199999999' 
COMPS,ioos:station:USF.COMPS:C10:1,2010-12-02T18:00:00Z,27.1690,-82.9260,4.0,149.03624346793,17.492855684536,-99999.0,'1111122,1111122,1199999999' 
COMPS,ioos:station:USF.COMPS:C10:1,2010-12-02T19:00:00Z,27.1690,-82.9260,4.0,150.94539590092,10.295630140987,-99999.0,'1111122,1111122,1199999999' 
COMPS,ioos:station:USF.COMPS:C10:1,2010-12-02T20:00:00Z,27.1690,-82.9260,4.0,132.510447078,16.2788205961,-99999.0,'1111122,1111122,1199999999' 
COMPS,ioos:station:USF.COMPS:C10:1,2010-12-02T21:00:00Z,27.1690,-82.9260,4.0,128.15722658737,17.804493814765,-99999.0,'1111122,1111122,1199999999' 
COMPS,ioos:station:USF.COMPS:C10:1,2010-12-02T22:00:00Z,27.1690,-82.9260,4.0,135.0,19.798989873223,-99999.0,'1111122,1111122,1199999999' 
COMPS,ioos:station:USF.COMPS:C10:1,2010-12-02T23:00:00Z,27.1690,-82.9260,4.0,142.59464336859,21.400934559033,-99999.0,'1111122,1111122,1199999999' 
COMPS,ioos:station:USF.COMPS:C10:1,2010-12-03T00:00:00Z,27.1690,-82.9260,4.0,146.9761324442,23.853720883753,-99999.0,'1111122,1111122,1199999999' 
COMPS,ioos:station:USF.COMPS:C10:1,2010-12-03T01:00:00Z,27.1690,-82.9260,4.0,153.43494882292,20.124611797498,-99999.0,'1111122,1111122,1199999999' 
COMPS,ioos:station:USF.COMPS:C10:1,2010-12-03T02:00:00Z,27.1690,-82.9260,4.0,154.79887635452,18.788294228056,-99999.0,'1111122,1111122,1199999999' 
COMPS,ioos:station:USF.COMPS:C10:1,2010-12-03T03:00:00Z,27.1690,-82.9260,4.0,156.37062226934,17.464249196573,-99999.0,'1111122,1111122,1199999999' 
COMPS,ioos:station:USF.COMPS:C10:1,2010-12-03T04:00:00Z,27.1690,-82.9260,4.0,173.65980825409,18.110770276275,-99999.0,'1111122,1111122,1199999999' 
COMPS,ioos:station:USF.COMPS:C10:1,2010-12-03T05:00:00Z,27.1690,-82.9260,4.0,175.601294645,13.038404810405,-99999.0,'1111122,1111122,1199999999' 
COMPS,ioos:station:USF.COMPS:C10:1,2010-12-03T06:00:00Z,27.1690,-82.9260,4.0,168.69006752598,10.198039027186,-99999.0,'1111122,1111122,1199999999' 
COMPS,ioos:station:USF.COMPS:C10:1,2010-12-03T07:00:00Z,27.1690,-82.9260,4.0,175.91438322003,14.035668847618,-99999.0,'1111122,1111122,1199999999' 
COMPS,ioos:station:USF.COMPS:C10:1,2010-12-03T08:00:00Z,27.1690,-82.9260,4.0,170.53767779197,12.165525060596,-99999.0,'1111122,1111122,1199999999' 
COMPS,ioos:station:USF.COMPS:C10:1,2010-12-03T09:00:00Z,27.1690,-82.9260,4.0,120.96375653207,11.661903789691,-99999.0,'1111122,1111122,1199999999' 
COMPS,ioos:station:USF.COMPS:C10:1,2010-12-03T10:00:00Z,27.1690,-82.9260,4.0,131.63353933657,12.041594578792,-99999.0,'1111122,1111122,1199999999' 
COMPS,ioos:station:USF.COMPS:C10:1,2010-12-03T12:00:00Z,27.1690,-82.9260,4.0,132.87890360334,19.104973174543,-99999.0,'1111122,1111122,1199999999' 
COMPS,ioos:station:USF.COMPS:C10:1,2010-12-03T13:00:00Z,27.1690,-82.9260,4.0,116.56505117708,11.180339887499,-99999.0,'1111122,1111122,1199999999' 
COMPS,ioos:station:USF.COMPS:C10:1,2010-12-03T14:00:00Z,27.1690,-82.9260,4.0,140.90614111377,20.615528128088,-99999.0,'1111122,1111122,1199999999' 
COMPS,ioos:station:USF.COMPS:C10:1,2010-12-03T15:00:00Z,27.1690,-82.9260,4.0,143.9726266149,13.601470508735,-99999.0,'1111122,1111122,1199999999' 
COMPS,ioos:station:USF.COMPS:C10:1,2010-12-03T16:00:00Z,27.1690,-82.9260,4.0,141.84277341263,17.804493814765,-99999.0,'1111122,1111122,1199999999' 
COMPS,ioos:station:USF.COMPS:C10:1,2010-12-03T17:00:00Z,27.1690,-82.9260,4.0,151.69924423399,14.764823060233,-99999.0,'1111122,1111122,1199999999' 
COMPS,ioos:station:USF.COMPS:C10:1,2010-12-03T18:00:00Z,27.1690,-82.9260,4.0,142.1250163489,11.401754250991,-99999.0,'1111122,1111122,1199999999' 
COMPS,ioos:station:USF.COMPS:C10:1,2010-12-03T19:00:00Z,27.1690,-82.9260,4.0,161.56505117708,9.4868329805051,-99999.0,'1111122,1111122,1199999999' 
COMPS,ioos:station:USF.COMPS:C10:1,2010-12-03T20:00:00Z,27.1690,-82.9260,4.0,135.0,7.0710678118655,-99999.0,'1111122,1111122,1199999999' 
COMPS,ioos:station:USF.COMPS:C10:1,2010-12-03T21:00:00Z,27.1690,-82.9260,4.0,105.94539590092,7.2801098892805,-99999.0,'1111122,1111122,1199999999' 
COMPS,ioos:station:USF.COMPS:C10:1,2010-12-03T22:00:00Z,27.1690,-82.9260,4.0,109.9831065219,11.70469991072,-99999.0,'1111122,1111122,1199999999' 
COMPS,ioos:station:USF.COMPS:C10:1,2010-12-03T23:00:00Z,27.1690,-82.9260,4.0,138.01278750418,13.453624047074,-99999.0,'1111122,1111122,1199999999' 
COMPS,ioos:station:USF.COMPS:C10:1,2010-12-04T00:00:00Z,27.1690,-82.9260,4.0,135.0,11.313708498985,-99999.0,'1111122,1111122,1199999999' 
COMPS,ioos:station:USF.COMPS:C10:1,2010-12-04T01:00:00Z,27.1690,-82.9260,4.0,138.36646066343,12.041594578792,-99999.0,'1111122,1111122,1199999999' 
COMPS,ioos:station:USF.COMPS:C10:1,2010-12-04T02:00:00Z,27.1690,-82.9260,4.0,149.74356283647,13.89244398945,-99999.0,'1111122,1111122,1199999999' 
COMPS,ioos:station:USF.COMPS:C10:1,2010-12-04T03:00:00Z,27.1690,-82.9260,4.0,161.56505117708,12.649110640674,-99999.0,'1111122,1111122,1199999999' 
COMPS,ioos:station:USF.COMPS:C10:1,2010-12-04T04:00:00Z,27.1690,-82.9260,4.0,180.0,14.0,-99999.0,'1111122,1111122,1199999999' 
COMPS,ioos:station:USF.COMPS:C10:1,2010-12-04T05:00:00Z,27.1690,-82.9260,4.0,185.19442890773,11.045361017187,-99999.0,'1111122,1111122,1199999999' 
COMPS,ioos:station:USF.COMPS:C10:1,2010-12-04T06:00:00Z,27.1690,-82.9260,4.0,198.43494882292,9.4868329805051,-99999.0,'1111122,1111122,1199999999' 
COMPS,ioos:station:USF.COMPS:C10:1,2010-12-04T07:00:00Z,27.1690,-82.9260,4.0,225.0,5.6568542494924,-99999.0,'1111122,1111122,1199999999' 
COMPS,ioos:station:USF.COMPS:C10:1,2010-12-04T08:00:00Z,27.1690,-82.9260,4.0,251.56505117708,3.1622776601684,-99999.0,'1111122,1111122,1199999999' 
COMPS,ioos:station:USF.COMPS:C10:1,2010-12-04T09:00:00Z,27.1690,-82.9260,4.0,153.43494882292,2.2360679774998,-99999.0,'1111122,1111122,1199999999' 
COMPS,ioos:station:USF.COMPS:C10:1,2010-12-04T10:00:00Z,27.1690,-82.9260,4.0,90.0,5.0,-99999.0,'1111122,1111122,1199999999' 
COMPS,ioos:station:USF.COMPS:C10:1,2010-12-04T11:00:00Z,27.1690,-82.9260,4.0,53.130102354156,5.0,-99999.0,'1111122,1111122,1199999999' 
COMPS,ioos:station:USF.COMPS:C10:1,2010-12-04T12:00:00Z,27.1690,-82.9260,4.0,90.0,6.0,-99999.0,'1111122,1111122,1199999999' 
COMPS,ioos:station:USF.COMPS:C10:1,2010-12-04T13:00:00Z,27.1690,-82.9260,4.0,90.0,5.0,-99999.0,'1111122,1111122,1199999999' 
COMPS,ioos:station:USF.COMPS:C10:1,2010-12-04T14:00:00Z,27.1690,-82.9260,4.0,90.0,4.0,-99999.0,'1111122,1111122,1199999999' 
COMPS,ioos:station:USF.COMPS:C10:1,2010-12-04T15:00:00Z,27.1690,-82.9260,4.0,135.0,2.8284271247462,-99999.0,'1111122,1111122,1199999999' 
COMPS,ioos:station:USF.COMPS:C10:1,2010-12-04T16:00:00Z,27.1690,-82.9260,4.0,153.43494882292,4.4721359549996,-99999.0,'1111122,1111122,1199999999' 
COMPS,ioos:station:USF.COMPS:C10:1,2010-12-04T17:00:00Z,27.1690,-82.9260,4.0,161.56505117708,3.1622776601684,-99999.0,'1111122,1111122,1199999999' 
COMPS,ioos:station:USF.COMPS:C10:1,2010-12-04T18:00:00Z,27.1690,-82.9260,4.0,225.0,1.4142135623731,-99999.0,'1111122,1111122,1199999999' 
COMPS,ioos:station:USF.COMPS:C10:1,2010-12-04T19:00:00Z,27.1690,-82.9260,4.0,180.0,2.0,-99999.0,'1111122,1111122,1199999999' 
COMPS,ioos:station:USF.COMPS:C10:1,2010-12-04T20:00:00Z,27.1690,-82.9260,4.0,0.0,0.0,-99999.0,'1114422,1114422,1199999999' 
COMPS,ioos:station:USF.COMPS:C10:1,2010-12-04T21:00:00Z,27.1690,-82.9260,4.0,63.434948822922,2.2360679774998,-99999.0,'1111122,1111122,1199999999' 
COMPS,ioos:station:USF.COMPS:C10:1,2010-12-04T22:00:00Z,27.1690,-82.9260,4.0,90.0,5.0,-99999.0,'1111122,1111122,1199999999' 
COMPS,ioos:station:USF.COMPS:C10:1,2010-12-04T23:00:00Z,27.1690,-82.9260,4.0,96.34019174591,9.0553851381374,-99999.0,'1111122,1111122,1199999999' 
COMPS,ioos:station:USF.COMPS:C10:1,2010-12-05T00:00:00Z,27.1690,-82.9260,4.0,113.96248897458,9.8488578017961,-99999.0,'1111122,1111122,1199999999' 
COMPS,ioos:station:USF.COMPS:C10:1,2010-12-05T01:00:00Z,27.1690,-82.9260,4.0,135.0,9.8994949366117,-99999.0,'1111122,1111122,1199999999' 
COMPS,ioos:station:USF.COMPS:C10:1,2010-12-05T02:00:00Z,27.1690,-82.9260,4.0,145.00797980144,12.206555615734,-99999.0,'1111122,1111122,1199999999' 
COMPS,ioos:station:USF.COMPS:C10:1,2010-12-05T03:00:00Z,27.1690,-82.9260,4.0,142.1250163489,11.401754250991,-99999.0,'1111122,1111122,1199999999' 
COMPS,ioos:station:USF.COMPS:C10:1,2010-12-05T04:00:00Z,27.1690,-82.9260,4.0,161.56505117708,12.649110640674,-99999.0,'1111122,1111122,1199999999' 
COMPS,ioos:station:USF.COMPS:C10:1,2010-12-05T05:00:00Z,27.1690,-82.9260,4.0,180.0,13.0,-99999.0,'1111122,1111122,1199999999' 
COMPS,ioos:station:USF.COMPS:C10:1,2010-12-05T06:00:00Z,27.1690,-82.9260,4.0,180.0,10.0,-99999.0,'1111122,1111122,1199999999' 
COMPS,ioos:station:USF.COMPS:C10:1,2010-12-05T07:00:00Z,27.1690,-82.9260,4.0,153.43494882292,8.9442719099992,-99999.0,'1111122,1111122,1199999999' 
COMPS,ioos:station:USF.COMPS:C10:1,2010-12-05T08:00:00Z,27.1690,-82.9260,4.0,161.56505117708,6.3245553203368,-99999.0,'1111122,1111122,1199999999' 
COMPS,ioos:station:USF.COMPS:C10:1,2010-12-05T09:00:00Z,27.1690,-82.9260,4.0,104.03624346793,4.1231056256177,-99999.0,'1111122,1111122,1199999999' 
COMPS,ioos:station:USF.COMPS:C10:1,2010-12-05T10:00:00Z,27.1690,-82.9260,4.0,90.0,6.0,-99999.0,'1111122,1111122,1199999999' 
COMPS,ioos:station:USF.COMPS:C10:1,2010-12-05T11:00:00Z,27.1690,-82.9260,4.0,108.43494882292,9.4868329805051,-99999.0,'1111122,1111122,1199999999' 
COMPS,ioos:station:USF.COMPS:C10:1,2010-12-05T12:00:00Z,27.1690,-82.9260,4.0,111.80140948635,5.3851648071345,-99999.0,'1111122,1111122,1199999999' 
COMPS,ioos:station:USF.COMPS:C10:1,2010-12-05T13:00:00Z,27.1690,-82.9260,4.0,108.43494882292,9.4868329805051,-99999.0,'1111122,1111122,1199999999' 
COMPS,ioos:station:USF.COMPS:C10:1,2010-12-05T14:00:00Z,27.1690,-82.9260,4.0,105.25511870306,11.401754250991,-99999.0,'1111122,1111122,1199999999' 
COMPS,ioos:station:USF.COMPS:C10:1,2010-12-05T15:00:00Z,27.1690,-82.9260,4.0,110.55604521958,8.5440037453175,-99999.0,'1111122,1111122,1199999999' 
COMPS,ioos:station:USF.COMPS:C10:1,2010-12-05T16:00:00Z,27.1690,-82.9260,4.0,120.96375653207,5.8309518948453,-99999.0,'1111122,1111122,1199999999' 
COMPS,ioos:station:USF.COMPS:C10:1,2010-12-05T17:00:00Z,27.1690,-82.9260,4.0,168.69006752598,5.0990195135928,-99999.0,'1111122,1111122,1199999999' 
COMPS,ioos:station:USF.COMPS:C10:1,2010-12-05T18:00:00Z,27.1690,-82.9260,4.0,158.19859051365,10.770329614269,-99999.0,'1111122,1111122,1199999999' 
COMPS,ioos:station:USF.COMPS:C10:1,2010-12-05T19:00:00Z,27.1690,-82.9260,4.0,153.43494882292,6.7082039324994,-99999.0,'1111122,1111122,1199999999' 
COMPS,ioos:station:USF.COMPS:C10:1,2010-12-05T21:00:00Z,27.1690,-82.9260,4.0,111.80140948635,10.770329614269,-99999.0,'1111122,1111122,1199999999' 
COMPS,ioos:station:USF.COMPS:C10:1,2010-12-05T22:00:00Z,27.1690,-82.9260,4.0,123.69006752598,10.816653826392,-99999.0,'1111122,1111122,1199999999' 
COMPS,ioos:station:USF.COMPS:C10:1,2010-12-05T23:00:00Z,27.1690,-82.9260,4.0,135.0,14.142135623731,-99999.0,'1111122,1111122,1199999999' 
COMPS,ioos:station:USF.COMPS:C10:1,2010-12-06T00:00:00Z,27.1690,-82.9260,4.0,123.69006752598,14.422205101856,-99999.0,'1111122,1111122,1199999999' 
COMPS,ioos:station:USF.COMPS:C10:1,2010-12-06T01:00:00Z,27.1690,-82.9260,4.0,147.09475707701,20.248456731317,-99999.0,'1111122,1111122,1199999999' 
COMPS,ioos:station:USF.COMPS:C10:1,2010-12-06T02:00:00Z,27.1690,-82.9260,4.0,139.08561677997,19.849433241279,-99999.0,'1111122,1111122,1199999999' 
COMPS,ioos:station:USF.COMPS:C10:1,2010-12-06T03:00:00Z,27.1690,-82.9260,4.0,154.65382405805,21.023796041629,-99999.0,'1111122,1111122,1199999999' 
COMPS,ioos:station:USF.COMPS:C10:1,2010-12-06T04:00:00Z,27.1690,-82.9260,4.0,154.44003482818,25.495097567964,-99999.0,'1111122,1111122,1199999999' 
COMPS,ioos:station:USF.COMPS:C10:1,2010-12-06T05:00:00Z,27.1690,-82.9260,4.0,146.30993247402,28.844410203712,-99999.0,'1111122,1111122,1199999999' 
COMPS,ioos:station:USF.COMPS:C10:1,2010-12-06T06:00:00Z,27.1690,-82.9260,4.0,174.2894068625,20.099751242242,-99999.0,'1111122,1111122,1199999999' 
COMPS,ioos:station:USF.COMPS:C10:1,2010-12-06T07:00:00Z,27.1690,-82.9260,4.0,163.07248693585,24.041630560343,-99999.0,'1111122,1111122,1199999999' 
COMPS,ioos:station:USF.COMPS:C10:1,2010-12-06T08:00:00Z,27.1690,-82.9260,4.0,180.0,18.0,-99999.0,'1111122,1111122,1199999999' 
COMPS,ioos:station:USF.COMPS:C10:1,2010-12-06T09:00:00Z,27.1690,-82.9260,4.0,165.96375653207,8.2462112512353,-99999.0,'1111122,1111122,1199999999' 
COMPS,ioos:station:USF.COMPS:C10:1,2010-12-06T10:00:00Z,27.1690,-82.9260,4.0,145.00797980144,12.206555615734,-99999.0,'1111122,1111122,1199999999' 
COMPS,ioos:station:USF.COMPS:C10:1,2010-12-06T11:00:00Z,27.1690,-82.9260,4.0,116.56505117708,15.652475842499,-99999.0,'1111122,1111122,1199999999' 
COMPS,ioos:station:USF.COMPS:C10:1,2010-12-06T12:00:00Z,27.1690,-82.9260,4.0,120.96375653207,11.661903789691,-99999.0,'1111122,1111122,1199999999' 
COMPS,ioos:station:USF.COMPS:C10:1,2010-12-06T13:00:00Z,27.1690,-82.9260,4.0,120.96375653207,11.661903789691,-99999.0,'1111122,1111122,1199999999' 
COMPS,ioos:station:USF.COMPS:C10:1,2010-12-06T14:00:00Z,27.1690,-82.9260,4.0,124.99202019856,12.206555615734,-99999.0,'1111122,1111122,1199999999' 
COMPS,ioos:station:USF.COMPS:C10:1,2010-12-06T15:00:00Z,27.1690,-82.9260,4.0,143.13010235416,15.0,-99999.0,'1111122,1111122,1199999999' 
COMPS,ioos:station:USF.COMPS:C10:1,2010-12-06T16:00:00Z,27.1690,-82.9260,4.0,140.19442890773,15.620499351813,-99999.0,'1111122,1111122,1199999999' 
COMPS,ioos:station:USF.COMPS:C10:1,2010-12-06T17:00:00Z,27.1690,-82.9260,4.0,147.52880770915,13.038404810405,-99999.0,'1111122,1111122,1199999999' 
COMPS,ioos:station:USF.COMPS:C10:1,2010-12-06T18:00:00Z,27.1690,-82.9260,4.0,146.30993247402,18.02775637732,-99999.0,'1111122,1111122,1199999999' 
COMPS,ioos:station:USF.COMPS:C10:1,2010-12-06T19:00:00Z,27.1690,-82.9260,4.0,162.89727103095,13.601470508735,-99999.0,'1111122,1111122,1199999999' 
COMPS,ioos:station:USF.COMPS:C10:1,2010-12-06T20:00:00Z,27.1690,-82.9260,4.0,150.25511870306,24.186773244896,-99999.0,'1111122,1111122,1199999999' 
COMPS,ioos:station:USF.COMPS:C10:1,2010-12-06T21:00:00Z,27.1690,-82.9260,4.0,152.10272896905,19.235384061671,-99999.0,'1111122,1111122,1199999999' 
COMPS,ioos:station:USF.COMPS:C10:1,2010-12-06T22:00:00Z,27.1690,-82.9260,4.0,146.30993247402,25.238858928248,-99999.0,'1111122,1111122,1199999999' 
COMPS,ioos:station:USF.COMPS:C10:1,2010-12-06T23:00:00Z,27.1690,-82.9260,4.0,131.82016988014,25.495097567964,-99999.0,'1111122,1111122,1199999999' 
COMPS,ioos:station:USF.COMPS:C10:1,2010-12-07T00:00:00Z,27.1690,-82.9260,4.0,113.74949449287,27.313000567495,-99999.0,'1111122,1111122,1199999999' 
COMPS,ioos:station:USF.COMPS:C10:1,2010-12-07T01:00:00Z,27.1690,-82.9260,4.0,125.21759296819,20.808652046685,-99999.0,'1111122,1111122,1199999999' 
COMPS,ioos:station:USF.COMPS:C10:1,2010-12-07T02:00:00Z,27.1690,-82.9260,4.0,130.3645365731,26.248809496813,-99999.0,'1111122,1111122,1199999999' 
COMPS,ioos:station:USF.COMPS:C10:1,2010-12-07T03:00:00Z,27.1690,-82.9260,4.0,140.7105931375,28.425340807104,-99999.0,'1111122,1111122,1199999999' 
COMPS,ioos:station:USF.COMPS:C10:1,2010-12-07T04:00:00Z,27.1690,-82.9260,4.0,144.46232220803,25.806975801128,-99999.0,'1111122,1111122,1199999999' 
COMPS,ioos:station:USF.COMPS:C10:1,2010-12-07T05:00:00Z,27.1690,-82.9260,4.0,144.68878656037,29.410882339705,-99999.0,'1111122,1111122,1199999999' 
COMPS,ioos:station:USF.COMPS:C10:1,2010-12-07T06:00:00Z,27.1690,-82.9260,4.0,141.70983680776,24.20743687382,-99999.0,'1111122,1111122,1199999999' 
COMPS,ioos:station:USF.COMPS:C10:1,2010-12-07T07:00:00Z,27.1690,-82.9260,4.0,154.65382405805,21.023796041629,-99999.0,'1111122,1111122,1199999999' 
COMPS,ioos:station:USF.COMPS:C10:1,2010-12-07T08:00:00Z,27.1690,-82.9260,4.0,173.29016319224,17.117242768624,-99999.0,'1111122,1111122,1199999999' 
COMPS,ioos:station:USF.COMPS:C10:1,2010-12-07T09:00:00Z,27.1690,-82.9260,4.0,161.56505117708,15.811388300842,-99999.0,'1111122,1111122,1199999999' 
COMPS,ioos:station:USF.COMPS:C10:1,2010-12-07T10:00:00Z,27.1690,-82.9260,4.0,147.52880770915,13.038404810405,-99999.0,'1111122,1111122,1199999999' 
COMPS,ioos:station:USF.COMPS:C10:1,2010-12-07T11:00:00Z,27.1690,-82.9260,4.0,131.63353933657,12.041594578792,-99999.0,'1111122,1111122,1199999999' 
COMPS,ioos:station:USF.COMPS:C10:1,2010-12-07T12:00:00Z,27.1690,-82.9260,4.0,118.61045966597,12.529964086142,-99999.0,'1111122,1111122,1199999999' 
COMPS,ioos:station:USF.COMPS:C10:1,2010-12-07T13:00:00Z,27.1690,-82.9260,4.0,118.61045966597,12.529964086142,-99999.0,'1111122,1111122,1199999999' 
COMPS,ioos:station:USF.COMPS:C10:1,2010-12-07T14:00:00Z,27.1690,-82.9260,4.0,126.86989764584,15.0,-99999.0,'1111122,1111122,1199999999' 
COMPS,ioos:station:USF.COMPS:C10:1,2010-12-07T15:00:00Z,27.1690,-82.9260,4.0,126.86989764584,15.0,-99999.0,'1111122,1111122,1199999999' 
COMPS,ioos:station:USF.COMPS:C10:1,2010-12-07T16:00:00Z,27.1690,-82.9260,4.0,155.55604521958,12.083045973595,-99999.0,'1111122,1111122,1199999999' 
COMPS,ioos:station:USF.COMPS:C10:1,2010-12-07T17:00:00Z,27.1690,-82.9260,4.0,124.99202019856,12.206555615734,-99999.0,'1111122,1111122,1199999999' 
COMPS,ioos:station:USF.COMPS:C10:1,2010-12-07T18:00:00Z,27.1690,-82.9260,4.0,138.36646066343,12.041594578792,-99999.0,'1111122,1111122,1199999999' 
COMPS,ioos:station:USF.COMPS:C10:1,2010-12-07T19:00:00Z,27.1690,-82.9260,4.0,155.55604521958,12.083045973595,-99999.0,'1111122,1111122,1199999999' 
COMPS,ioos:station:USF.COMPS:C10:1,2010-12-07T20:00:00Z,27.1690,-82.9260,4.0,153.43494882292,6.7082039324994,-99999.0,'1111122,1111122,1199999999' 
COMPS,ioos:station:USF.COMPS:C10:1,2010-12-07T21:00:00Z,27.1690,-82.9260,4.0,156.03751102542,9.8488578017961,-99999.0,'1111122,1111122,1199999999' 
COMPS,ioos:station:USF.COMPS:C10:1,2010-12-07T22:00:00Z,27.1690,-82.9260,4.0,122.47119229085,13.038404810405,-99999.0,'1111122,1111122,1199999999' 
COMPS,ioos:station:USF.COMPS:C10:1,2010-12-07T23:00:00Z,27.1690,-82.9260,4.0,124.99202019856,12.206555615734,-99999.0,'1111122,1111122,1199999999' 
COMPS,ioos:station:USF.COMPS:C10:1,2010-12-08T00:00:00Z,27.1690,-82.9260,4.0,108.43494882292,15.811388300842,-99999.0,'1111122,1111122,1199999999' 
COMPS,ioos:station:USF.COMPS:C10:1,2010-12-08T01:00:00Z,27.1690,-82.9260,4.0,116.56505117708,13.416407864999,-99999.0,'1111122,1111122,1199999999' 